Wind_Speed
16 16 16 16 16 16 16 16 16 16 16 17 17 16 16 16 16 16 17 18 18 18 18 19 19 20 20 20 20 20 20 21 21 21 20 17 21 28 31 32 32 31 28 25 21 18 17 13 12 12 14 21 23 21 19 16 15 14 11 15 19 18 18 17 18 19 17 23 21 14 10 5 2 5 4 2 2 6 10 11 10 10 11 10 12 14 17 18
16 16 16 16 16 16 16 16 17 17 17 17 17 17 16 16 16 16 16 16 17 17 17 18 19 19 20 20 20 20 20 21 21 20 17 16 21 26 28 32 33 32 29 26 22 20 18 15 14 14 15 21 24 21 18 17 16 15 13 15 18 17 15 15 19 19 17 21 17 11 10 5 1 2 3 3 5 8 9 10 11 10 12 13 14 14 15 17
16 16 17 17 17 17 17 17 17 17 17 17 17 17 17 16 15 16 16 16 16 16 17 18 19 19 19 19 19 19 19 20 19 17 15 16 20 23 26 31 34 32 30 27 24 22 20 17 16 15 15 18 22 22 19 19 18 16 15 15 16 15 14 16 19 18 16 17 14 12 12 7 1 1 3 3 6 9 7 8 10 10 10 12 13 12 14 15
16 16 17 17 17 17 17 17 17 17 18 18 17 18 18 17 15 15 15 16 15 15 16 17 18 19 19 18 18 18 18 18 16 14 13 16 20 21 25 30 34 33 31 29 26 24 22 19 17 16 16 16 19 21 21 21 17 16 18 18 15 15 16 19 19 16 15 13 11 13 14 9 4 4 4 4 8 12 10 8 8 9 9 8 10 11 12 15
16 17 17 17 17 17 17 17 17 18 18 18 18 18 18 18 16 15 15 15 15 15 16 16 17 18 18 18 17 16 16 14 12 11 11 17 21 21 25 30 34 34 32 30 28 26 24 21 19 18 17 18 18 19 20 19 15 16 19 18 14 16 19 20 19 17 14 11 13 15 15 11 7 5 4 3 6 12 12 9 8 8 8 7 5 6 9 11
17 17 17 17 17 17 17 18 18 18 18 18 19 18 18 18 17 16 15 15 15 15 16 16 17 17 17 18 16 15 14 10 8 9 11 18 22 22 25 31 35 36 35 32 30 28 25 22 21 19 19 19 19 21 20 15 14 16 18 17 16 18 21 20 22 20 15 14 16 16 13 11 7 5 5 2 4 9 11 8 7 7 7 7 5 4 5 5
18 18 18 18 18 18 18 18 18 18 19 19 19 19 18 18 18 17 16 16 16 16 16 16 16 16 16 17 16 15 13 10 9 10 11 18 23 23 26 32 36 38 36 34 31 28 26 24 22 20 19 18 19 23 18 12 13 16 16 17 17 22 24 23 24 21 17 16 17 16 14 10 7 5 6 5 3 5 8 9 7 7 7 7 6 6 5 4
18 18 18 18 18 19 19 18 19 19 19 19 19 19 19 19 19 18 17 17 17 16 16 16 17 16 16 16 16 15 12 10 11 11 11 18 24 25 27 33 37 38 37 35 32 29 27 26 23 20 19 18 19 21 15 12 13 15 14 18 21 27 27 27 25 21 19 18 17 15 14 10 7 6 5 6 6 4 6 10 9 7 7 7 7 7 7 8
18 18 18 19 19 19 19 19 19 19 20 20 20 19 19 19 19 19 19 18 17 17 17 17 17 16 16 15 16 14 11 10 11 11 13 19 25 27 28 33 38 40 38 35 32 30 29 26 23 20 19 17 19 18 13 11 12 15 17 22 26 30 30 29 25 22 21 18 16 14 13 12 10 10 7 8 9 7 6 10 9 7 6 7 7 7 8 9
18 18 18 18 19 19 19 20 20 20 21 21 21 20 20 20 19 19 19 19 18 18 17 17 17 17 16 15 17 13 10 10 11 12 15 20 26 28 29 32 38 40 38 36 34 31 29 26 22 20 18 17 17 16 13 11 11 14 21 27 29 31 31 30 24 24 22 17 15 13 13 15 14 14 12 11 12 11 8 9 9 7 7 8 8 8 9 9
18 18 18 18 19 19 19 20 20 20 21 21 22 21 21 21 20 19 20 20 19 19 19 18 17 17 16 16 16 11 10 12 12 14 16 21 28 29 30 33 37 40 38 36 34 32 30 25 22 20 19 17 17 12 8 9 15 21 27 31 31 31 31 29 26 27 23 16 14 12 12 16 16 17 15 11 12 13 10 8 9 8 8 10 10 10 11 10
19 19 19 19 19 19 20 20 20 20 21 21 22 22 22 22 21 20 20 21 20 20 19 18 18 17 17 17 13 10 14 14 13 16 17 22 28 31 32 34 38 40 39 37 34 33 30 25 23 20 18 18 15 8 2 3 20 28 32 35 34 32 32 30 27 27 21 13 12 12 13 16 16 16 15 14 13 13 12 9 9 8 8 11 11 12 12 12
19 19 19 19 19 20 20 20 20 20 20 21 21 22 22 22 22 21 20 21 21 21 20 20 19 18 18 14 8 11 17 15 13 14 17 21 27 31 33 35 39 42 41 40 36 33 30 26 25 21 20 18 11 5 4 7 25 33 35 37 36 34 33 31 28 26 18 8 11 13 12 14 13 14 16 16 14 15 15 13 11 8 9 12 12 12 13 12
20 20 20 19 20 20 20 20 20 20 20 21 21 21 22 22 22 22 22 21 21 22 22 21 20 19 19 11 7 14 17 14 12 11 15 20 25 30 32 34 39 43 44 42 37 34 30 28 26 23 23 19 10 8 7 10 30 37 36 36 38 37 34 33 28 22 16 10 14 12 8 8 9 12 16 16 15 15 15 14 13 10 10 12 13 13 13 12
21 21 20 20 20 20 20 21 21 20 20 21 21 22 23 23 23 23 22 22 21 23 23 22 21 21 20 10 9 16 15 12 11 11 14 19 23 28 32 34 38 42 44 43 38 35 31 29 28 26 25 19 14 13 9 13 32 38 36 35 38 39 34 32 28 21 16 13 17 12 6 6 6 9 13 14 15 14 14 14 12 12 12 12 13 14 13 12
21 21 21 21 21 21 21 21 21 20 20 21 21 22 24 24 25 24 23 23 23 24 24 23 21 20 19 10 9 15 12 10 11 13 16 19 22 27 31 35 37 41 44 42 37 34 32 31 29 28 25 20 17 15 8 14 30 37 37 38 38 37 34 33 27 22 18 15 16 15 9 7 6 9 13 13 14 14 14 14 12 13 14 14 14 14 14 13
21 21 21 21 21 22 22 22 22 21 20 21 21 22 24 25 26 26 25 24 25 26 25 25 23 22 19 10 10 14 12 10 13 16 18 20 23 26 32 36 38 42 43 40 36 33 33 32 32 30 26 23 21 18 10 14 31 36 32 36 37 33 32 32 28 25 25 21 17 18 15 9 6 9 13 13 13 13 13 13 13 14 15 15 15 14 15 15
20 21 21 21 21 22 23 23 22 21 20 21 21 21 23 26 28 28 27 26 26 26 26 25 24 22 16 9 12 14 14 15 17 19 19 22 25 27 33 36 38 41 40 37 35 34 33 33 34 31 28 28 26 23 16 15 32 36 30 34 36 33 32 28 27 28 28 25 20 18 17 13 10 10 12 12 13 13 12 12 12 14 16 15 15 15 14 14
21 21 20 20 21 22 23 23 22 22 21 21 22 22 23 25 27 29 29 28 27 26 26 25 23 21 15 9 11 14 18 19 20 21 20 20 24 27 33 36 38 41 38 35 36 35 34 34 35 35 32 32 30 26 20 15 27 33 29 32 33 34 34 28 27 27 26 26 24 21 18 15 14 13 13 13 13 12 11 12 14 15 16 14 14 15 14 14
22 21 20 20 20 21 22 23 22 21 21 20 21 22 24 25 27 29 29 29 28 27 27 26 26 27 22 14 11 14 20 22 23 23 21 20 22 25 33 37 37 39 38 35 36 35 35 35 38 40 36 34 31 26 21 16 21 25 24 30 32 33 35 31 28 26 24 26 26 23 19 16 16 15 13 12 14 14 14 14 15 16 16 15 16 15 15 15
22 22 21 20 20 21 22 22 21 21 21 21 21 22 24 28 29 30 30 27 23 22 25 25 27 29 25 17 16 17 18 23 27 26 23 23 23 25 33 39 38 39 38 35 34 35 37 37 40 43 39 34 31 26 23 19 20 21 18 20 27 33 35 32 31 28 25 26 26 23 21 19 18 16 15 14 13 12 14 15 14 15 15 15 16 15 15 15
23 22 21 20 20 21 21 21 20 20 20 20 21 21 24 27 29 30 32 30 23 18 20 21 24 28 25 18 19 23 22 24 27 26 25 25 26 29 34 39 39 38 38 34 34 35 38 42 43 42 40 34 30 29 27 24 22 21 17 13 16 26 31 30 31 30 27 27 27 24 24 22 20 18 17 16 11 7 8 12 11 12 14 14 15 14 14 14
24 23 21 21 20 20 21 21 19 19 19 19 21 21 22 24 26 28 30 33 29 21 17 17 20 26 26 19 21 28 28 27 26 26 27 26 28 31 33 38 38 37 36 36 38 39 39 44 44 41 40 36 33 32 31 28 25 21 19 16 14 17 23 28 32 31 30 31 28 26 26 25 21 21 22 18 12 8 9 11 11 11 11 9 9 10 11 10
25 23 22 21 20 20 21 21 19 19 18 19 20 20 22 22 22 25 27 32 33 25 19 18 19 25 26 19 22 30 31 27 26 27 29 29 30 31 33 36 36 36 36 37 40 40 39 41 42 40 39 39 36 35 34 31 28 22 20 20 15 13 18 23 29 32 32 33 30 25 24 27 26 25 25 21 17 15 14 15 16 15 13 9 10 11 11 9
25 24 23 22 20 20 20 20 20 19 18 19 19 18 20 20 20 22 24 29 33 29 22 17 16 20 22 20 24 30 31 30 27 26 27 30 32 32 33 33 34 36 36 36 38 40 39 38 41 40 38 42 40 37 37 33 29 25 22 21 17 13 14 18 23 29 31 32 34 28 18 20 29 30 27 23 22 22 20 21 22 19 18 17 16 16 13 11
26 24 23 22 21 20 19 20 20 19 18 17 18 18 18 19 18 19 22 25 31 29 20 14 11 12 16 20 24 30 32 33 29 25 24 29 32 33 33 33 33 35 34 34 33 38 40 37 40 41 37 41 42 40 40 34 30 28 24 21 17 15 16 19 23 30 32 33 36 36 22 14 25 34 30 26 24 24 23 24 24 22 22 23 22 19 17 15
26 25 23 22 22 20 18 19 19 19 18 17 18 17 16 16 14 15 17 16 18 20 17 13 11 10 11 13 22 32 31 29 28 27 26 28 31 33 34 33 32 32 33 31 30 36 40 37 40 44 40 39 42 44 43 37 31 29 24 20 16 16 16 20 25 29 33 36 33 37 33 17 21 33 32 29 27 25 27 27 25 25 25 24 24 23 21 19
25 25 24 22 22 20 17 17 19 19 17 17 18 17 15 13 9 11 9 4 10 18 18 14 10 11 12 11 21 34 32 25 26 28 26 26 29 33 35 34 31 31 31 31 33 34 38 39 41 45 45 40 42 46 44 39 34 29 24 18 16 16 17 21 26 27 33 33 25 33 36 18 17 31 30 30 33 30 30 29 25 25 26 25 25 24 24 22
25 24 23 21 21 21 18 18 19 18 16 16 17 15 14 11 8 8 3 1 12 17 13 11 10 10 11 11 18 31 33 24 21 24 25 25 28 32 35 33 29 28 29 31 34 31 32 38 39 42 47 46 45 46 44 41 36 29 23 18 17 18 21 23 25 30 33 26 23 35 40 20 13 26 30 32 38 34 31 29 24 24 25 25 25 24 26 25
24 24 23 21 21 21 18 18 21 19 16 16 17 15 13 11 11 8 4 5 15 16 14 16 14 10 9 11 18 29 34 24 15 18 24 27 26 27 30 30 26 25 26 28 32 32 30 32 35 38 44 48 49 45 43 41 37 31 25 22 22 22 23 22 24 32 24 14 25 39 45 33 14 21 34 36 34 27 23 25 25 26 26 25 25 25 26 28
23 23 23 21 20 20 19 18 21 21 17 15 16 15 13 13 14 9 4 10 17 16 12 10 7 6 8 11 22 28 32 27 16 15 23 29 28 28 29 31 30 26 26 29 30 31 31 30 33 36 39 44 46 46 44 40 37 35 30 27 24 19 18 15 16 23 12 7 29 41 44 38 18 20 34 36 31 23 20 22 24 26 26 22 21 23 25 28
23 22 22 22 21 19 19 19 20 20 18 16 15 15 15 14 16 16 12 12 10 7 5 4 1 1 8 8 22 28 30 27 20 19 24 29 32 34 32 32 36 30 26 30 29 29 33 34 35 33 35 39 41 43 44 41 39 37 33 31 20 7 7 7 6 10 8 12 28 37 37 31 26 35 37 31 30 25 22 22 21 25 26 20 18 19 22 25
23 22 21 22 21 19 19 19 18 19 19 16 15 17 18 12 13 23 24 18 8 5 5 3 2 2 6 8 14 22 29 27 22 22 25 28 31 36 35 32 36 34 27 28 28 28 29 33 37 35 34 38 40 40 42 42 42 39 35 32 20 6 3 3 2 1 5 15 23 29 29 21 24 40 40 32 29 26 25 25 21 25 27 21 16 16 19 22
22 22 20 20 21 20 21 20 18 19 20 19 18 18 20 16 15 22 26 24 20 18 17 16 15 11 7 7 10 12 24 29 25 24 26 30 32 37 39 35 35 36 31 26 27 29 23 25 38 42 37 38 39 41 42 41 42 41 38 34 28 19 9 4 5 4 7 16 18 18 18 14 21 34 35 31 28 27 29 29 26 28 27 22 19 18 18 19
21 21 20 19 20 22 23 22 19 19 21 21 21 21 26 25 22 24 26 27 27 25 25 26 28 25 17 13 10 11 16 26 29 28 27 31 35 36 38 38 36 37 34 27 25 27 25 26 37 41 40 40 37 39 42 39 39 40 38 35 35 32 23 13 10 13 16 12 9 13 13 15 27 34 30 26 26 28 31 30 29 28 26 26 25 22 19 18
21 20 19 19 22 23 24 23 20 20 22 23 24 27 32 31 25 23 21 19 17 16 18 20 18 18 18 15 12 8 8 17 26 29 27 29 35 36 35 36 37 38 38 32 24 23 23 26 32 36 39 43 39 36 39 39 35 34 34 36 35 32 31 23 12 12 13 6 5 14 14 15 23 26 25 25 25 25 26 26 27 24 22 26 28 24 21 19
20 19 18 20 22 23 24 23 21 21 22 26 29 32 33 32 29 26 21 14 10 7 11 14 11 10 13 13 13 9 6 8 18 28 28 26 30 35 35 34 35 38 41 38 29 23 20 20 26 34 37 42 42 38 39 41 39 35 33 33 29 24 27 25 11 5 5 2 5 15 18 18 18 16 20 24 22 20 20 19 20 19 20 26 27 24 21 19
20 18 18 19 22 23 23 22 22 22 23 28 33 33 32 31 30 30 29 24 19 16 17 18 18 17 17 16 17 15 11 12 12 22 30 29 29 32 35 35 34 36 39 40 35 28 22 17 20 31 36 36 39 40 40 40 40 40 37 32 27 19 19 21 12 3 3 2 3 10 16 18 20 18 16 17 17 17 19 20 18 19 23 27 26 21 19 19
20 18 18 18 20 23 22 21 22 23 25 30 33 32 32 32 29 31 33 30 27 25 25 24 23 22 21 22 23 22 19 16 15 17 23 28 31 33 34 34 34 34 35 41 41 35 29 20 16 25 33 32 33 38 43 41 38 40 40 36 34 27 22 23 20 11 6 4 2 5 8 11 18 21 15 13 14 14 16 21 22 24 26 26 23 19 19 19
20 19 18 18 19 20 21 20 22 23 26 31 33 31 30 29 29 32 32 28 26 25 25 25 23 23 24 25 25 24 22 21 19 18 20 22 28 34 35 33 34 33 32 37 41 40 36 29 21 21 25 28 34 38 42 43 39 38 39 39 38 33 24 22 23 20 13 6 3 3 4 8 14 14 13 13 14 13 14 17 21 26 26 23 20 18 19 18
20 19 19 18 18 19 21 23 23 24 26 29 30 29 29 29 30 31 27 23 21 20 21 23 22 23 25 25 24 23 22 23 22 21 23 23 23 28 34 35 34 33 32 36 40 40 39 35 33 30 25 27 33 35 38 42 40 38 38 40 40 36 27 16 13 18 18 11 7 6 4 11 15 12 11 12 12 12 14 17 22 26 23 20 18 17 16 15
19 19 18 18 17 18 22 25 25 24 25 26 25 26 27 28 29 30 27 23 21 21 21 23 23 23 25 25 24 22 20 21 23 23 24 23 23 26 32 35 35 34 35 38 38 39 39 34 33 37 36 30 27 26 27 33 38 39 38 39 39 37 33 22 11 14 18 14 11 8 5 11 16 13 9 9 9 10 11 16 22 23 20 17 17 17 16 15
19 17 16 19 19 18 20 23 24 25 24 23 23 24 24 24 26 26 24 21 21 22 22 24 24 23 24 23 19 18 18 20 22 23 23 22 23 24 27 35 38 36 38 40 37 38 39 34 31 34 37 37 33 28 24 24 31 37 39 40 41 39 37 32 24 21 21 20 16 9 4 10 15 15 12 9 9 9 9 16 22 22 19 18 17 18 17 16
19 17 15 18 21 20 20 20 21 23 23 22 22 23 22 21 22 21 18 14 14 15 17 20 20 21 24 22 17 16 17 18 21 23 22 23 24 22 21 31 40 39 40 41 40 39 37 34 33 26 21 24 28 28 27 27 30 35 39 42 43 42 41 37 31 25 20 23 25 14 6 12 19 21 22 20 18 16 13 18 24 24 21 19 19 19 18 18
18 17 16 17 22 23 22 20 21 22 22 22 24 24 22 21 20 17 15 15 14 14 15 18 17 19 24 22 18 19 21 19 22 25 24 26 28 25 20 22 37 44 40 38 39 40 39 39 38 27 14 12 14 17 25 33 32 31 35 40 42 43 43 39 31 23 17 20 27 21 12 15 20 21 24 25 23 21 17 21 27 28 25 22 21 20 19 20
18 18 17 17 21 25 24 22 24 24 24 25 27 26 23 23 22 20 17 17 16 16 17 18 17 18 22 20 17 21 25 22 19 22 24 25 27 24 18 16 29 45 42 37 40 43 41 41 44 40 34 31 30 28 28 29 28 28 31 38 41 40 42 41 33 29 25 22 24 25 22 20 20 20 21 21 19 17 18 25 30 29 28 26 24 21 18 21
18 20 20 16 17 23 26 26 26 24 23 25 27 26 24 23 22 21 19 16 14 15 18 19 18 19 22 21 17 18 24 27 22 17 20 22 24 21 15 12 18 38 45 41 41 44 42 39 42 46 47 46 44 41 34 26 24 25 28 36 40 37 39 42 37 35 34 26 22 26 27 24 23 22 22 21 19 18 20 25 29 30 31 30 26 22 20 21
19 19 20 18 16 19 24 26 28 26 23 22 24 26 25 23 22 22 21 18 14 13 15 17 16 16 19 21 18 16 21 29 26 18 17 17 21 21 15 8 3 19 36 41 41 42 41 40 41 44 48 51 49 45 40 34 27 25 25 32 39 38 39 43 41 40 39 33 30 31 28 26 27 26 23 20 19 20 22 24 28 31 32 31 27 24 23 23
21 20 20 20 20 20 21 24 27 28 26 23 24 25 24 24 24 22 20 19 16 12 10 11 13 12 12 17 19 18 22 29 28 20 17 16 18 19 18 12 2 5 10 24 38 41 37 37 39 40 43 50 52 48 45 41 36 32 28 30 37 39 38 41 44 44 41 37 37 36 33 32 31 27 25 24 23 23 24 25 29 33 33 32 29 27 26 25
22 22 22 22 22 21 20 22 25 27 26 24 23 23 25 26 24 20 18 18 16 12 9 8 9 9 10 14 17 18 24 33 34 25 22 22 19 16 16 15 9 5 4 2 22 36 39 38 38 38 38 41 47 49 47 44 42 40 35 32 35 40 39 39 42 42 40 37 35 35 35 36 32 27 27 28 28 28 27 27 31 34 35 34 31 29 29 26
21 22 22 23 22 20 20 21 23 25 25 24 23 24 26 25 21 19 18 15 9 8 9 8 7 8 11 14 16 18 22 32 37 29 25 26 22 18 15 11 10 10 8 9 6 17 34 40 38 35 33 36 41 41 42 46 44 42 41 37 36 39 39 37 39 39 39 38 37 36 37 37 34 32 30 30 31 32 30 29 32 36 37 37 33 30 29 26
21 22 22 24 23 20 19 20 21 22 22 21 22 24 26 24 20 18 17 13 10 7 8 7 7 9 13 16 17 18 20 28 35 30 24 24 23 22 21 15 12 13 12 14 15 9 16 30 37 35 30 33 39 37 37 40 32 29 37 38 37 38 35 32 33 35 35 36 35 37 38 37 37 37 36 35 35 33 30 29 32 35 38 38 33 28 28 25
Wind_Direction
302 305 307 308 307 308 308 307 305 303 303 308 312 311 302 292 288 287 285 285 285 285 285 283 279 276 273 271 269 267 265 262 260 252 242 230 222 219 215 215 216 215 215 215 217 215 218 218 212 213 198 188 183 179 185 179 175 182 187 184 183 184 181 181 179 181 178 166 167 170 179 224 171 145 163 164 180 152 133 128 128 130 133 155 165 151 151 156
300 302 305 307 306 306 307 308 309 306 305 307 311 313 308 298 292 290 289 288 287 288 288 287 284 280 276 274 271 268 266 264 261 254 244 230 222 218 212 210 210 208 207 208 211 212 217 218 213 210 194 190 190 188 191 188 187 194 197 194 194 195 190 182 178 184 188 174 173 184 196 227 331 105 155 202 202 163 143 137 137 136 138 158 169 156 153 158
300 300 303 305 306 305 305 307 309 309 308 307 310 313 312 305 297 292 292 291 290 290 290 289 288 285 281 276 273 270 267 266 263 259 246 224 216 214 209 207 206 203 201 205 208 209 214 213 209 210 202 198 196 199 203 199 201 208 214 217 204 197 192 178 181 191 187 177 178 187 196 214 270 150 163 190 178 152 129 125 140 147 144 155 166 162 155 156
300 299 300 303 306 305 304 304 306 309 309 308 309 311 313 310 302 297 294 293 294 293 293 292 290 288 285 278 274 271 269 270 267 261 240 213 208 206 203 202 202 200 200 205 205 206 212 211 209 211 209 204 200 203 210 208 210 221 231 237 216 191 183 177 185 190 181 180 184 185 187 196 196 178 182 153 153 153 133 112 122 145 149 149 160 165 160 159
305 300 298 300 303 305 305 303 303 305 308 310 309 310 312 311 307 302 297 295 296 297 297 295 293 290 287 281 275 271 271 275 270 255 225 203 200 199 198 196 198 199 200 203 202 205 210 211 210 212 212 205 201 202 204 207 219 238 247 253 235 196 181 179 186 183 181 188 186 185 184 193 199 179 179 115 131 158 147 123 117 138 151 151 158 170 166 165
312 305 300 299 299 302 304 304 303 302 305 308 310 310 311 311 309 305 300 297 296 299 300 297 295 292 288 283 275 269 266 265 258 241 210 198 195 191 192 192 195 198 199 201 200 205 208 211 210 212 214 205 203 202 201 211 237 257 259 258 244 208 190 183 184 183 185 191 186 186 187 204 224 184 171 121 120 158 154 137 134 142 151 162 170 177 169 165
313 311 307 301 299 299 301 302 302 302 303 305 308 310 309 310 310 306 303 299 298 299 300 300 297 294 291 284 275 266 259 247 240 234 205 195 191 187 188 189 194 196 197 198 199 203 205 209 212 213 216 209 204 202 210 237 254 269 261 244 225 200 194 185 184 188 187 186 183 188 197 221 241 193 173 174 175 180 169 158 156 155 150 169 180 176 177 175
310 312 311 307 303 300 299 300 300 301 301 302 305 307 308 308 308 307 304 299 299 299 300 300 297 295 293 286 275 264 256 242 231 229 206 193 188 184 185 188 192 194 196 197 198 201 204 209 213 215 218 214 205 205 227 254 253 259 237 209 194 183 186 184 184 187 183 181 181 192 207 222 223 198 190 184 195 248 204 171 166 171 156 165 179 178 185 187
307 308 309 310 308 305 302 300 300 300 299 300 302 304 306 306 306 306 303 300 298 299 300 299 298 296 293 288 277 265 255 240 224 221 206 191 185 182 183 187 191 193 194 196 198 202 205 210 213 216 219 215 210 213 241 257 244 238 203 181 179 175 179 183 183 182 177 177 182 192 201 203 198 193 195 188 205 250 225 180 169 177 167 168 180 180 185 189
304 304 305 307 308 308 307 304 302 300 300 300 300 302 303 304 305 303 302 301 297 297 299 298 298 294 291 287 276 264 250 236 217 214 204 188 182 181 182 185 190 193 194 196 197 201 206 209 213 217 218 218 217 222 254 260 229 208 182 173 176 173 177 183 179 177 176 176 188 196 189 191 196 202 208 193 208 241 234 193 177 181 178 177 185 179 179 184
301 301 302 303 305 307 308 308 306 304 303 301 301 302 301 301 302 301 300 299 297 296 296 296 296 292 289 281 271 260 243 232 213 208 203 189 182 181 183 184 188 191 194 196 196 202 207 210 213 215 218 222 222 225 272 261 203 184 173 172 177 175 176 182 177 177 178 172 190 207 185 185 197 210 226 224 220 231 233 214 190 186 180 181 189 180 178 178
298 299 300 300 302 303 305 307 308 309 308 306 305 304 302 300 300 300 299 297 296 295 293 294 292 290 286 276 266 256 242 232 216 205 200 192 185 183 184 183 185 189 193 195 198 205 209 211 212 215 219 219 223 222 356 209 186 179 172 170 176 179 178 182 179 177 181 175 182 194 174 180 202 212 224 238 234 219 222 234 212 196 183 182 190 185 181 177
296 297 297 298 299 300 301 303 306 309 310 311 311 309 306 303 299 298 296 296 295 293 290 289 289 290 284 272 251 250 242 230 222 208 199 196 189 187 186 183 184 186 190 194 199 207 209 210 211 215 216 215 224 206 94 158 177 175 173 168 171 177 179 182 181 178 188 194 174 183 177 175 198 208 214 229 228 209 211 226 224 212 193 187 190 188 186 182
296 295 295 296 296 297 299 300 303 306 309 310 312 311 309 307 302 298 295 294 293 291 288 287 289 289 283 269 231 246 243 229 220 206 201 198 194 192 188 186 185 185 188 193 198 204 207 207 210 213 213 217 208 156 97 155 175 175 174 168 167 174 177 180 182 181 191 191 175 194 213 180 187 200 209 221 215 207 209 216 221 220 207 198 193 190 192 189
294 294 295 294 295 295 296 297 300 304 306 307 308 308 308 309 306 300 295 292 290 288 287 287 287 288 285 271 233 246 245 227 208 195 204 201 197 196 190 187 187 186 189 194 198 202 205 205 208 210 210 215 196 159 110 148 175 178 174 167 170 175 176 180 187 191 199 196 183 203 229 176 186 198 202 212 206 207 214 217 221 219 215 207 198 194 195 193
293 293 294 294 294 294 294 294 297 302 304 305 305 303 303 305 305 303 298 291 287 286 287 286 285 286 285 269 237 247 243 218 194 192 206 204 199 197 193 189 186 187 191 195 199 201 204 205 207 210 208 207 197 181 153 153 172 178 175 172 173 176 175 181 193 197 209 221 197 199 214 197 205 199 195 200 199 203 211 218 220 214 215 213 206 201 197 199
291 292 292 292 293 293 293 293 295 299 301 302 302 301 298 299 303 305 301 292 286 287 288 286 285 285 282 265 235 237 223 193 184 195 202 200 200 198 195 191 186 188 192 196 199 199 203 205 206 210 210 206 204 201 195 170 173 176 177 177 177 180 180 183 195 196 206 227 220 205 215 229 228 196 190 190 190 195 200 206 207 206 213 215 211 207 203 209
290 291 291 291 292 291 291 292 294 298 299 298 299 298 294 296 301 302 301 296 289 289 290 289 287 284 278 244 220 220 201 185 188 194 194 191 196 198 195 192 187 190 195 197 198 199 200 204 207 210 212 209 209 209 207 186 179 179 180 181 180 185 189 190 200 201 202 216 228 220 216 222 221 194 184 185 185 187 187 189 191 199 210 211 210 210 207 212
288 289 289 290 290 289 289 290 293 296 297 297 296 296 293 296 300 299 301 302 298 293 288 287 282 277 271 237 217 210 194 192 195 193 190 187 192 197 194 192 190 192 198 198 197 198 199 203 206 209 211 210 210 210 207 190 182 186 190 190 188 190 195 203 210 209 203 206 219 227 224 222 220 203 189 189 184 178 181 187 187 194 203 202 200 204 203 208
286 286 287 288 288 288 287 288 291 293 295 295 294 294 293 295 295 294 299 303 301 294 285 284 281 277 272 249 218 204 197 199 202 195 192 191 191 197 196 192 190 195 202 200 196 197 200 204 207 209 210 209 211 208 204 197 187 195 201 200 202 202 203 208 211 210 205 207 214 223 230 233 233 222 207 193 182 180 185 189 189 191 194 194 192 195 196 196
283 284 284 285 286 286 286 287 289 290 292 293 292 292 293 296 295 296 303 304 300 293 285 283 281 277 271 250 214 207 211 210 207 199 194 195 192 196 198 192 190 196 202 199 196 198 201 208 210 209 210 210 212 208 206 209 201 205 214 212 210 209 209 209 210 210 207 211 215 216 223 232 239 233 215 199 194 199 195 187 187 190 188 189 191 194 192 186
281 281 282 282 283 283 284 286 288 288 288 289 289 290 292 295 297 301 308 309 307 302 287 278 277 274 271 253 208 208 226 220 210 199 191 195 195 195 196 193 191 196 200 197 195 198 203 210 211 209 211 211 211 212 214 216 212 215 227 240 231 215 211 208 208 210 209 213 217 217 220 226 233 231 220 217 224 240 217 193 184 187 189 189 190 192 189 184
280 279 280 280 280 281 282 284 286 286 285 284 284 286 288 290 295 302 307 309 311 312 301 290 282 270 265 250 204 209 225 219 209 196 190 198 198 194 196 195 194 196 200 198 195 198 204 210 210 208 211 213 213 216 219 219 220 226 231 240 247 226 213 206 204 208 209 211 216 221 220 219 221 221 219 225 233 241 236 213 197 197 200 198 199 197 191 185
280 280 279 278 277 278 280 281 284 284 282 280 280 282 284 285 292 298 301 304 305 310 315 306 282 262 258 245 210 213 221 216 207 192 190 200 198 195 198 197 197 198 201 200 198 202 206 207 207 208 212 214 216 218 220 222 223 229 233 233 240 234 224 215 207 207 207 209 215 219 216 215 215 216 217 220 222 223 229 224 214 211 209 211 220 213 203 198
282 281 279 277 276 275 277 280 280 281 279 279 278 276 278 282 289 296 300 302 302 309 320 311 282 262 255 240 218 215 216 216 207 187 191 203 196 196 200 198 201 203 200 200 201 207 209 205 206 209 212 215 219 220 220 223 226 229 230 229 235 236 238 239 218 204 200 207 216 214 211 216 216 219 220 217 220 221 222 225 222 218 214 216 221 217 212 210
282 281 279 277 274 272 274 277 277 278 277 276 275 271 272 278 285 293 300 303 303 310 322 320 305 279 256 237 218 209 213 220 210 188 192 204 197 196 200 200 205 207 201 199 205 212 210 203 205 210 212 215 221 223 221 222 227 233 227 221 233 238 246 253 226 202 197 209 218 215 215 219 214 219 221 215 221 225 224 228 226 223 222 223 224 221 220 216
281 280 279 277 275 271 269 273 274 274 274 272 270 266 266 274 281 291 303 310 305 311 320 316 315 299 272 242 213 204 211 220 209 193 193 199 198 197 201 204 206 207 201 201 211 217 211 202 204 211 213 216 221 223 223 222 227 233 222 216 231 238 254 258 232 213 211 216 215 213 216 218 217 223 222 215 220 225 228 234 231 227 227 227 229 228 228 226
280 279 277 276 275 272 267 269 270 270 271 270 266 261 259 264 270 281 299 321 297 307 314 308 310 302 280 248 212 205 210 216 205 198 193 192 197 197 202 207 208 208 202 205 214 216 211 205 204 210 213 217 220 221 223 225 230 230 219 222 237 245 266 261 241 231 223 215 200 203 211 216 230 229 221 216 220 225 233 238 237 234 232 230 230 230 231 234
279 277 276 273 273 273 267 266 268 268 266 264 262 258 251 248 244 254 256 259 289 303 313 303 311 315 284 245 213 206 209 210 203 203 196 189 194 201 206 207 208 212 208 213 220 217 213 209 206 210 215 219 221 221 224 228 230 227 222 232 245 259 271 266 251 233 218 207 198 204 207 208 235 229 216 212 218 228 239 242 243 242 239 238 234 231 231 233
279 276 274 271 269 269 267 267 269 266 260 257 256 249 239 230 221 217 185 247 284 298 303 297 300 313 292 237 206 202 206 205 199 204 198 192 194 203 212 211 209 215 215 220 225 222 218 212 209 212 216 220 222 223 226 229 230 228 229 239 250 267 270 262 245 223 207 200 213 215 211 208 221 227 217 217 224 241 255 251 250 246 240 240 239 234 232 232
280 275 273 269 265 264 263 266 266 262 259 254 249 240 226 219 213 196 199 261 283 298 303 305 293 316 320 233 205 201 204 205 208 213 202 196 197 203 211 210 207 213 219 222 225 225 222 213 210 215 216 219 224 226 227 229 229 228 234 243 251 264 258 246 223 208 197 211 223 222 213 207 213 224 223 228 238 256 269 263 264 258 248 242 236 234 233 234
279 274 272 268 263 259 260 264 261 259 261 248 238 233 215 210 214 208 223 257 287 310 323 14 138 348 352 251 212 205 205 207 215 219 207 199 201 206 210 208 205 207 217 221 222 224 223 217 212 214 215 216 220 226 228 228 228 230 236 241 243 240 229 225 185 193 209 218 224 224 213 208 222 228 228 235 243 253 259 256 262 264 260 250 237 232 231 234
278 273 269 266 262 256 256 262 257 253 257 244 232 226 209 206 224 222 230 245 255 265 281 324 237 221 343 296 238 218 214 214 213 214 212 206 205 209 213 215 211 209 213 217 219 221 222 221 216 214 215 214 215 221 225 225 226 230 233 234 229 185 151 228 209 248 241 222 226 225 214 208 224 230 234 238 245 252 251 249 257 265 264 255 244 238 233 235
277 273 266 262 260 256 253 257 254 247 250 242 231 222 210 213 231 231 239 250 255 265 273 281 282 280 278 279 292 260 229 221 214 213 215 211 209 210 213 216 215 214 214 215 220 219 216 219 215 212 214 213 212 219 226 227 227 229 233 236 234 218 204 219 206 186 215 222 221 210 203 201 218 233 240 240 245 252 252 253 258 263 263 253 246 243 237 237
275 272 268 260 254 253 251 251 251 244 244 240 230 220 214 219 229 238 247 256 263 274 278 279 284 286 276 259 288 302 249 230 219 215 219 216 214 214 213 215 215 215 214 213 219 219 220 226 217 211 213 213 212 218 224 228 230 231 234 236 235 230 227 233 227 214 211 216 209 190 193 215 227 236 241 241 248 250 250 250 248 253 255 245 238 234 231 233
273 270 267 260 252 249 248 247 248 244 241 239 229 222 223 227 233 241 248 257 267 277 279 283 286 285 285 274 272 293 275 243 226 220 222 221 222 221 218 216 214 215 216 214 215 215 221 232 223 213 213 214 213 216 220 224 226 229 232 232 233 235 235 235 231 218 212 210 202 198 205 218 226 235 235 233 243 245 243 239 236 245 247 235 228 222 222 226
272 268 263 259 253 248 245 244 245 242 240 238 232 229 232 235 238 241 241 242 250 262 278 295 300 283 288 287 272 278 320 290 242 229 227 223 225 226 223 221 217 216 219 218 218 218 222 234 225 216 215 214 212 214 222 225 225 227 231 232 232 234 235 233 224 190 189 210 210 201 207 210 204 215 223 222 235 250 254 246 237 239 232 221 217 212 213 219
269 264 258 256 253 249 246 243 241 240 237 236 236 237 239 239 240 243 243 242 248 255 264 278 283 280 286 288 277 272 296 317 281 243 236 229 228 229 226 225 223 220 220 221 224 224 224 237 228 216 218 217 212 216 226 229 228 230 232 233 231 224 220 218 212 193 175 204 235 202 206 211 206 209 219 226 243 261 266 262 247 231 219 209 204 202 202 209
271 264 258 254 250 248 246 243 239 236 233 234 237 239 241 242 243 244 245 247 251 257 265 270 274 277 277 277 277 274 276 294 299 274 253 237 233 233 228 226 226 225 221 221 225 227 226 236 234 217 218 221 218 221 227 227 226 230 232 233 234 231 222 214 213 216 201 185 231 215 211 218 218 223 233 246 261 270 270 264 244 224 215 206 197 192 192 198
273 268 263 255 249 245 239 234 232 229 229 233 237 240 244 247 247 246 248 252 256 259 265 269 272 275 274 275 278 276 273 277 286 292 284 259 243 238 232 228 226 227 224 220 224 228 228 233 237 222 213 216 219 221 223 225 226 230 229 226 227 227 222 219 219 216 207 185 162 186 235 236 228 238 253 257 261 261 260 259 240 221 212 202 193 191 192 194
273 270 267 257 247 239 231 227 226 226 230 235 238 241 245 248 250 251 252 254 257 259 261 263 264 265 270 273 273 274 279 281 284 294 293 280 262 247 238 232 227 226 225 221 221 224 226 229 232 232 225 217 218 221 224 226 230 234 232 226 224 223 215 208 216 214 211 210 196 187 233 247 243 251 256 253 256 252 250 249 234 218 206 196 194 197 198 199
271 269 267 259 246 234 229 228 224 225 230 235 239 243 247 251 254 258 260 259 258 256 256 258 258 259 266 270 274 283 290 288 291 296 291 287 285 271 252 241 232 226 223 221 220 222 226 228 230 237 239 229 217 217 222 227 232 236 236 229 226 226 218 209 206 207 207 215 219 213 230 249 247 242 230 233 237 234 244 244 228 212 202 200 202 201 199 202
269 266 263 257 245 229 228 230 226 228 232 233 235 240 246 254 257 261 265 265 262 258 255 256 257 260 264 266 275 289 292 288 286 284 285 292 297 291 268 249 238 228 222 223 221 218 221 225 226 233 243 240 231 227 224 225 231 234 233 230 228 229 228 228 230 225 215 210 208 204 212 228 228 224 220 227 231 223 226 229 220 210 204 205 207 204 203 202
265 258 250 247 242 229 226 229 229 234 236 234 236 238 241 248 252 260 267 263 259 260 259 258 257 260 264 265 268 275 279 280 274 273 289 301 299 301 288 255 241 231 223 222 221 216 215 218 218 221 240 246 241 239 234 228 232 237 235 231 229 230 230 231 232 229 221 213 208 205 206 213 217 224 227 233 247 252 239 219 212 209 207 207 208 208 207 201
266 255 241 234 235 231 227 228 231 235 237 239 242 242 242 243 243 253 266 260 251 252 259 260 257 264 271 266 258 263 268 268 273 283 299 305 297 300 305 269 242 234 230 227 224 220 217 219 218 213 213 226 229 233 229 225 232 241 237 231 230 228 227 226 223 216 213 215 212 212 220 219 219 227 230 233 245 249 232 212 208 207 207 208 210 210 206 199
274 263 245 227 227 229 227 226 230 235 239 242 245 245 246 247 244 245 257 264 257 250 257 264 264 271 273 258 249 269 271 259 268 291 298 301 299 297 306 287 243 232 233 232 227 222 220 221 223 221 223 227 230 230 226 225 233 238 232 228 228 226 226 226 220 213 216 216 212 218 227 227 224 227 230 231 236 238 226 213 209 208 206 206 209 210 206 200
276 269 256 236 223 225 226 227 232 234 238 244 247 247 247 249 252 251 252 260 263 253 253 257 259 267 268 253 247 269 264 243 244 286 301 295 292 287 293 303 253 232 230 229 225 222 219 221 224 226 229 233 235 235 233 236 246 245 234 228 227 227 227 225 219 219 222 217 214 222 224 224 229 233 234 233 232 235 230 219 216 216 211 206 206 206 204 201
270 266 263 254 238 225 219 223 230 231 231 239 246 247 249 252 259 264 260 256 253 247 251 254 257 268 267 250 241 251 246 232 237 277 303 289 283 282 281 305 272 223 225 224 221 219 218 222 225 226 229 234 237 239 239 241 249 253 246 237 232 229 226 223 222 226 226 222 225 228 225 228 236 237 234 234 234 235 236 230 226 220 210 203 202 204 205 201
270 264 261 258 252 241 227 223 229 230 228 233 242 247 252 254 259 268 270 266 256 238 244 265 269 270 254 231 227 234 233 228 235 265 291 284 282 285 286 295 309 171 220 227 224 222 222 224 226 227 229 233 236 239 241 243 246 249 249 242 234 228 224 223 224 226 228 230 234 235 235 239 242 240 238 237 237 239 241 237 228 216 207 204 204 205 205 204
269 266 262 258 254 251 245 237 238 240 234 233 241 246 247 251 258 263 264 268 269 253 242 258 261 249 224 214 222 233 231 228 233 253 276 277 274 276 288 297 277 241 18 271 223 223 225 227 230 230 230 232 236 237 239 242 247 248 249 247 238 229 224 223 224 225 227 229 231 234 236 238 240 244 246 243 240 241 242 237 224 213 209 208 206 206 208 208
268 268 265 264 258 252 251 247 247 251 246 240 243 243 241 245 251 257 255 253 261 261 247 247 257 241 217 214 228 234 228 227 231 244 264 265 262 266 271 288 289 276 309 352 308 233 224 225 227 228 227 231 235 235 236 240 245 247 249 254 249 234 224 221 223 226 228 228 228 229 231 235 240 247 249 247 243 243 245 238 221 212 213 214 211 210 209 209
268 269 267 268 264 256 252 249 248 253 251 244 242 241 241 241 240 250 255 232 205 220 237 240 262 244 211 206 218 219 215 222 228 239 254 254 252 258 258 263 288 299 308 322 330 305 234 223 222 223 222 228 232 234 234 235 237 242 246 252 251 240 231 227 226 227 230 231 230 229 231 236 243 248 248 245 242 241 243 236 224 219 219 217 214 212 209 209
Height
3167 3166 3165 3165 3164 3163 3162 3161 3160 3159 3158 3157 3155 3154 3153 3152 3152 3151 3151 3151 3151 3151 3151 3150 3150 3150 3150 3150 3150 3150 3150 3150 3150 3150 3151 3153 3154 3153 3155 3158 3161 3163 3165 3167 3169 3170 3171 3172 3173 3173 3173 3174 3174 3174 3175 3175 3176 3176 3177 3177 3177 3177 3177 3177 3178 3178 3177 3178 3179 3180 3180 3181 3180 3181 3182 3182 3183 3183 3182 3182 3183 3183 3184 3185 3187 3187 3187 3187
3165 3165 3164 3163 3163 3162 3161 3160 3159 3158 3157 3156 3154 3153 3152 3151 3150 3150 3149 3149 3149 3149 3149 3148 3148 3148 3148 3147 3147 3147 3147 3147 3147 3147 3149 3150 3150 3152 3154 3157 3159 3161 3164 3166 3168 3169 3170 3171 3171 3172 3173 3174 3174 3175 3175 3176 3176 3176 3177 3177 3177 3177 3177 3178 3178 3178 3177 3178 3179 3180 3181 3181 3180 3181 3181 3182 3183 3183 3183 3183 3183 3183 3184 3185 3187 3187 3187 3188
3164 3163 3163 3162 3161 3161 3160 3159 3158 3157 3156 3154 3153 3152 3151 3150 3149 3148 3148 3147 3147 3147 3146 3146 3145 3145 3145 3145 3144 3144 3144 3144 3144 3145 3146 3147 3148 3150 3153 3155 3158 3160 3163 3165 3166 3168 3169 3169 3170 3171 3172 3173 3174 3175 3175 3175 3176 3176 3176 3176 3176 3177 3177 3178 3178 3177 3177 3178 3179 3180 3181 3181 3180 3181 3182 3182 3183 3183 3183 3183 3183 3183 3184 3184 3186 3187 3188 3188
3163 3162 3161 3160 3160 3159 3158 3158 3157 3156 3154 3153 3152 3151 3150 3149 3148 3147 3146 3146 3145 3145 3144 3144 3143 3143 3143 3142 3142 3142 3141 3141 3142 3142 3143 3144 3146 3148 3150 3153 3157 3159 3162 3163 3165 3166 3167 3168 3169 3170 3170 3172 3173 3174 3174 3174 3175 3175 3175 3174 3176 3177 3177 3178 3178 3178 3178 3178 3179 3179 3180 3181 3181 3182 3183 3183 3183 3183 3183 3184 3184 3183 3184 3185 3186 3187 3188 3189
3162 3161 3160 3159 3158 3158 3157 3156 3155 3154 3153 3152 3151 3150 3149 3147 3147 3146 3145 3144 3144 3143 3143 3142 3141 3141 3140 3140 3140 3139 3139 3140 3140 3140 3141 3142 3143 3146 3148 3151 3155 3158 3160 3161 3163 3164 3165 3167 3168 3168 3169 3171 3172 3173 3173 3174 3175 3174 3173 3174 3177 3178 3177 3177 3178 3178 3179 3179 3179 3179 3180 3180 3181 3182 3183 3184 3184 3184 3184 3184 3185 3185 3185 3186 3187 3187 3188 3189
3160 3159 3159 3158 3157 3156 3155 3155 3154 3153 3152 3151 3150 3149 3147 3146 3145 3145 3144 3143 3142 3142 3141 3140 3139 3138 3138 3137 3137 3137 3138 3138 3138 3138 3139 3140 3141 3144 3147 3150 3153 3156 3158 3160 3161 3162 3164 3165 3166 3167 3168 3170 3171 3172 3173 3174 3174 3173 3172 3173 3175 3177 3177 3177 3177 3179 3179 3179 3179 3179 3180 3181 3182 3183 3184 3185 3185 3186 3185 3185 3186 3186 3186 3187 3187 3188 3189 3190
3159 3158 3157 3156 3156 3155 3154 3153 3152 3152 3151 3150 3149 3147 3146 3145 3144 3143 3142 3141 3141 3140 3139 3138 3137 3136 3136 3135 3135 3135 3135 3136 3136 3136 3137 3138 3140 3142 3145 3148 3151 3153 3156 3158 3160 3161 3163 3164 3165 3166 3167 3169 3170 3171 3173 3173 3172 3171 3170 3171 3173 3175 3177 3177 3177 3178 3179 3179 3179 3179 3180 3180 3181 3182 3183 3184 3185 3186 3186 3186 3186 3186 3187 3187 3188 3189 3190 3190
3157 3156 3155 3155 3154 3153 3152 3152 3151 3150 3149 3148 3147 3146 3145 3144 3143 3142 3141 3140 3139 3138 3138 3136 3135 3134 3134 3133 3133 3133 3133 3134 3134 3135 3136 3137 3138 3140 3143 3146 3149 3152 3155 3157 3159 3161 3162 3162 3164 3165 3166 3168 3169 3171 3172 3172 3170 3168 3168 3169 3171 3174 3176 3177 3177 3178 3178 3179 3180 3179 3179 3180 3181 3182 3182 3183 3184 3186 3186 3186 3186 3186 3187 3187 3188 3189 3190 3190
3156 3155 3154 3153 3152 3151 3151 3150 3149 3148 3148 3147 3146 3145 3143 3142 3141 3140 3139 3138 3137 3137 3136 3135 3134 3133 3132 3131 3131 3131 3132 3132 3133 3134 3134 3136 3137 3139 3141 3145 3148 3151 3154 3156 3158 3159 3160 3162 3163 3165 3166 3167 3169 3170 3171 3170 3168 3167 3167 3168 3170 3172 3174 3176 3177 3178 3178 3179 3179 3179 3179 3179 3181 3181 3182 3183 3184 3185 3186 3186 3186 3187 3187 3188 3188 3189 3190 3191
3154 3153 3152 3151 3150 3150 3149 3148 3147 3147 3146 3145 3144 3143 3142 3141 3140 3139 3137 3137 3136 3135 3134 3133 3132 3131 3130 3130 3129 3130 3130 3130 3131 3132 3133 3134 3136 3138 3140 3143 3147 3151 3153 3155 3157 3158 3159 3161 3163 3164 3165 3166 3168 3169 3169 3168 3167 3167 3168 3169 3170 3171 3173 3175 3176 3177 3178 3179 3179 3179 3179 3180 3181 3181 3181 3183 3184 3185 3185 3186 3186 3187 3187 3188 3188 3189 3190 3191
3152 3152 3151 3150 3149 3148 3147 3146 3146 3145 3144 3143 3142 3141 3140 3139 3138 3137 3136 3135 3134 3133 3132 3132 3131 3129 3128 3127 3127 3129 3128 3128 3130 3131 3132 3133 3135 3136 3138 3142 3145 3150 3153 3155 3156 3157 3158 3161 3162 3163 3164 3165 3166 3167 3167 3165 3165 3166 3167 3169 3171 3172 3173 3175 3176 3176 3177 3178 3179 3179 3179 3180 3181 3181 3181 3182 3183 3184 3185 3185 3186 3187 3187 3188 3188 3189 3189 3190
3151 3150 3149 3148 3147 3146 3145 3144 3144 3143 3142 3142 3140 3139 3138 3137 3136 3135 3134 3133 3132 3131 3130 3130 3129 3128 3126 3125 3126 3127 3126 3127 3128 3129 3131 3133 3134 3135 3136 3139 3142 3147 3151 3154 3156 3156 3158 3160 3160 3161 3162 3163 3164 3166 3165 3162 3162 3165 3166 3168 3171 3174 3174 3175 3176 3176 3176 3177 3178 3179 3179 3180 3180 3181 3182 3182 3182 3183 3184 3184 3185 3186 3187 3187 3188 3188 3189 3190
3149 3148 3147 3146 3145 3144 3143 3143 3142 3141 3141 3140 3139 3138 3136 3135 3134 3133 3132 3131 3130 3129 3128 3127 3127 3126 3125 3124 3125 3124 3124 3125 3127 3128 3130 3132 3133 3134 3136 3138 3140 3143 3147 3151 3153 3154 3156 3157 3158 3160 3161 3162 3164 3165 3163 3162 3163 3166 3167 3166 3169 3174 3175 3176 3177 3176 3177 3177 3177 3178 3178 3178 3179 3180 3181 3181 3181 3182 3182 3183 3184 3185 3186 3187 3187 3188 3189 3189
3146 3146 3145 3144 3143 3143 3142 3141 3140 3139 3139 3138 3137 3136 3134 3133 3132 3131 3130 3129 3128 3127 3126 3125 3125 3124 3123 3122 3123 3122 3122 3124 3126 3128 3129 3131 3133 3134 3136 3138 3139 3141 3144 3146 3149 3150 3153 3155 3156 3158 3159 3161 3162 3163 3162 3162 3165 3167 3168 3168 3167 3171 3174 3175 3176 3176 3176 3176 3177 3177 3177 3177 3177 3178 3179 3180 3180 3180 3181 3182 3183 3184 3185 3186 3186 3187 3188 3189
3144 3143 3143 3142 3141 3141 3140 3139 3138 3138 3137 3136 3135 3134 3132 3131 3130 3129 3128 3127 3126 3125 3124 3123 3123 3122 3121 3121 3121 3120 3121 3123 3124 3126 3127 3129 3132 3134 3136 3138 3140 3142 3143 3144 3146 3148 3151 3152 3154 3156 3157 3159 3161 3162 3162 3163 3166 3166 3168 3169 3167 3168 3172 3175 3175 3174 3174 3175 3176 3176 3176 3175 3176 3177 3177 3178 3179 3179 3180 3180 3181 3183 3184 3184 3185 3186 3187 3188
3142 3141 3140 3140 3139 3138 3137 3137 3136 3136 3135 3134 3133 3132 3130 3129 3128 3127 3126 3125 3123 3122 3122 3121 3121 3120 3119 3120 3120 3119 3120 3122 3123 3124 3125 3127 3130 3132 3135 3137 3139 3141 3142 3143 3145 3147 3149 3150 3152 3154 3156 3158 3159 3160 3162 3164 3166 3167 3167 3167 3167 3168 3170 3172 3173 3173 3174 3174 3174 3174 3174 3174 3175 3175 3175 3176 3177 3177 3178 3179 3180 3181 3182 3183 3184 3185 3186 3186
3140 3139 3138 3137 3137 3136 3135 3134 3134 3133 3133 3132 3131 3130 3128 3126 3126 3125 3124 3122 3121 3120 3120 3119 3118 3118 3117 3118 3118 3117 3118 3119 3120 3121 3122 3125 3128 3130 3132 3134 3137 3139 3140 3142 3143 3145 3147 3148 3150 3151 3153 3156 3157 3158 3160 3162 3164 3166 3166 3166 3166 3166 3167 3169 3170 3171 3172 3173 3173 3172 3172 3173 3173 3173 3173 3174 3175 3175 3176 3177 3179 3180 3181 3182 3183 3184 3184 3185
3138 3137 3136 3135 3134 3133 3132 3131 3131 3131 3131 3129 3128 3127 3126 3124 3123 3122 3121 3119 3119 3118 3118 3117 3117 3116 3115 3115 3116 3115 3116 3117 3117 3117 3119 3121 3125 3127 3130 3133 3135 3136 3138 3139 3141 3143 3144 3146 3148 3149 3151 3152 3154 3155 3156 3159 3161 3163 3165 3165 3165 3165 3165 3165 3165 3166 3168 3171 3172 3171 3171 3172 3172 3172 3173 3173 3174 3174 3175 3176 3177 3179 3180 3181 3182 3182 3183 3184
3135 3135 3134 3133 3133 3131 3130 3129 3129 3129 3128 3127 3126 3124 3123 3122 3121 3119 3118 3117 3117 3116 3116 3115 3114 3114 3114 3115 3115 3115 3114 3115 3114 3115 3117 3119 3121 3124 3127 3130 3132 3133 3134 3136 3138 3140 3142 3143 3144 3145 3146 3148 3151 3153 3155 3158 3162 3163 3164 3163 3162 3162 3163 3162 3162 3163 3166 3168 3169 3170 3170 3171 3171 3171 3172 3173 3173 3174 3175 3175 3176 3178 3179 3180 3180 3181 3182 3183
3133 3132 3132 3131 3130 3129 3128 3127 3126 3126 3126 3125 3124 3122 3120 3119 3118 3116 3116 3116 3115 3114 3113 3112 3112 3111 3112 3114 3115 3114 3113 3113 3113 3114 3116 3117 3119 3122 3125 3126 3128 3129 3131 3133 3136 3138 3140 3140 3139 3140 3143 3147 3150 3153 3155 3158 3161 3163 3164 3163 3161 3160 3160 3162 3162 3164 3166 3166 3167 3169 3170 3169 3169 3170 3171 3172 3173 3173 3174 3174 3175 3176 3177 3178 3179 3180 3181 3182
3130 3129 3129 3129 3128 3127 3125 3125 3124 3124 3123 3123 3122 3120 3118 3115 3114 3112 3113 3113 3113 3112 3109 3109 3109 3106 3107 3110 3113 3113 3112 3111 3111 3112 3114 3114 3115 3118 3121 3122 3123 3124 3126 3131 3135 3137 3138 3136 3136 3140 3144 3148 3150 3152 3154 3156 3158 3159 3161 3162 3161 3160 3159 3161 3163 3164 3166 3166 3167 3169 3169 3168 3169 3170 3171 3172 3172 3172 3172 3173 3174 3175 3176 3177 3178 3179 3180 3181
3127 3127 3126 3126 3125 3124 3123 3122 3122 3122 3121 3120 3119 3118 3116 3114 3111 3109 3109 3107 3106 3108 3107 3106 3106 3103 3103 3106 3109 3110 3109 3107 3109 3111 3112 3113 3112 3113 3118 3119 3119 3121 3125 3129 3131 3133 3133 3131 3134 3141 3145 3147 3150 3151 3152 3153 3155 3156 3158 3160 3160 3160 3160 3161 3163 3164 3166 3166 3167 3168 3168 3168 3169 3170 3171 3171 3171 3171 3172 3173 3174 3175 3175 3176 3177 3178 3179 3180
3124 3124 3124 3123 3123 3122 3121 3120 3120 3119 3119 3118 3117 3116 3114 3113 3111 3109 3107 3104 3101 3102 3104 3103 3102 3100 3099 3103 3106 3105 3104 3105 3107 3109 3110 3110 3110 3112 3115 3117 3118 3120 3123 3124 3126 3127 3127 3128 3134 3141 3143 3145 3148 3149 3150 3151 3153 3154 3155 3157 3158 3160 3161 3161 3162 3164 3165 3166 3167 3168 3168 3169 3170 3170 3170 3171 3172 3172 3173 3174 3175 3175 3176 3176 3177 3177 3178 3179
3121 3121 3121 3120 3120 3120 3118 3118 3118 3117 3116 3115 3115 3114 3112 3111 3111 3109 3107 3105 3099 3097 3099 3099 3097 3095 3096 3099 3102 3101 3101 3103 3104 3106 3108 3108 3109 3110 3112 3115 3117 3118 3120 3122 3124 3125 3124 3128 3135 3139 3141 3143 3145 3147 3148 3149 3151 3152 3153 3154 3156 3159 3161 3161 3162 3163 3165 3166 3167 3168 3170 3169 3169 3169 3168 3170 3172 3172 3172 3173 3173 3174 3175 3176 3177 3177 3177 3178
3117 3118 3118 3117 3117 3117 3117 3116 3115 3115 3114 3113 3113 3112 3111 3110 3110 3109 3107 3105 3099 3095 3095 3095 3093 3091 3093 3095 3096 3097 3100 3100 3102 3104 3106 3106 3107 3109 3111 3114 3115 3115 3118 3121 3123 3123 3125 3130 3135 3137 3138 3140 3142 3144 3146 3147 3149 3151 3151 3152 3155 3157 3160 3161 3162 3163 3166 3166 3165 3167 3169 3168 3167 3167 3167 3169 3170 3169 3170 3171 3170 3172 3173 3174 3174 3175 3177 3177
3114 3114 3114 3114 3114 3115 3115 3114 3112 3112 3112 3112 3111 3110 3110 3109 3109 3109 3107 3104 3098 3093 3092 3092 3091 3090 3090 3091 3093 3096 3098 3097 3100 3104 3104 3105 3107 3108 3110 3112 3113 3114 3118 3121 3122 3121 3123 3129 3132 3134 3136 3138 3139 3141 3143 3146 3148 3149 3149 3152 3154 3156 3157 3159 3159 3160 3162 3161 3161 3164 3165 3165 3165 3164 3164 3168 3168 3167 3169 3168 3168 3169 3170 3171 3172 3173 3175 3176
3111 3111 3111 3111 3111 3112 3113 3112 3110 3109 3109 3110 3109 3108 3108 3108 3109 3108 3107 3106 3098 3092 3091 3091 3091 3089 3089 3090 3091 3093 3093 3094 3099 3101 3101 3104 3105 3107 3109 3110 3111 3113 3117 3120 3120 3118 3121 3127 3129 3130 3133 3134 3135 3137 3140 3144 3145 3146 3148 3151 3153 3154 3155 3156 3156 3156 3156 3156 3159 3161 3162 3163 3162 3160 3162 3166 3166 3166 3166 3165 3165 3166 3167 3168 3169 3171 3173 3174
3108 3108 3108 3109 3108 3108 3110 3109 3108 3107 3108 3108 3107 3107 3107 3108 3109 3107 3109 3108 3098 3091 3091 3090 3090 3089 3088 3089 3089 3091 3092 3093 3097 3098 3100 3103 3104 3105 3107 3108 3111 3113 3115 3116 3114 3115 3119 3124 3125 3128 3130 3130 3132 3135 3138 3142 3143 3144 3148 3150 3151 3152 3153 3154 3154 3153 3153 3154 3157 3158 3160 3161 3158 3157 3161 3164 3164 3164 3162 3161 3161 3162 3163 3165 3167 3169 3170 3172
3105 3105 3105 3106 3105 3105 3107 3106 3105 3104 3106 3105 3105 3105 3106 3107 3108 3106 3109 3106 3095 3090 3091 3090 3090 3089 3088 3088 3088 3090 3093 3094 3097 3098 3101 3102 3103 3104 3105 3108 3111 3113 3115 3114 3113 3116 3119 3122 3125 3127 3127 3127 3131 3135 3137 3139 3141 3144 3148 3149 3149 3150 3151 3152 3152 3151 3151 3152 3152 3153 3155 3157 3155 3154 3158 3160 3160 3159 3158 3158 3158 3159 3161 3162 3164 3166 3167 3169
3102 3102 3102 3103 3103 3103 3103 3103 3101 3102 3103 3103 3103 3104 3105 3106 3106 3106 3108 3103 3092 3090 3091 3089 3090 3090 3089 3088 3088 3090 3093 3095 3097 3098 3100 3100 3102 3105 3106 3109 3112 3113 3114 3114 3114 3116 3119 3122 3125 3125 3125 3127 3132 3135 3136 3138 3140 3144 3146 3146 3147 3148 3149 3150 3149 3149 3150 3150 3148 3148 3149 3151 3151 3150 3152 3154 3154 3154 3153 3154 3155 3156 3158 3159 3161 3163 3164 3166
3100 3099 3098 3099 3100 3100 3101 3100 3098 3099 3101 3101 3101 3102 3103 3104 3104 3104 3102 3096 3091 3091 3090 3089 3089 3090 3090 3089 3089 3090 3092 3094 3095 3096 3098 3099 3101 3103 3104 3106 3109 3110 3111 3111 3112 3115 3117 3119 3121 3121 3124 3128 3131 3133 3134 3137 3139 3141 3143 3144 3146 3146 3147 3147 3147 3147 3149 3148 3146 3145 3147 3150 3148 3146 3147 3148 3149 3151 3151 3152 3152 3152 3154 3157 3158 3159 3161 3163
3096 3096 3095 3096 3096 3097 3097 3096 3096 3097 3098 3099 3100 3100 3101 3102 3100 3097 3094 3093 3092 3091 3089 3089 3088 3088 3089 3089 3090 3090 3091 3092 3093 3094 3096 3097 3098 3099 3100 3101 3103 3105 3106 3107 3110 3113 3114 3115 3117 3119 3122 3125 3127 3129 3131 3134 3136 3137 3140 3142 3144 3145 3146 3146 3146 3146 3146 3144 3144 3144 3146 3148 3144 3142 3144 3146 3148 3149 3149 3149 3149 3149 3151 3155 3157 3157 3159 3161
3093 3092 3093 3092 3092 3094 3094 3093 3093 3095 3095 3096 3097 3097 3099 3098 3093 3089 3090 3092 3092 3089 3089 3089 3087 3088 3089 3088 3089 3091 3091 3091 3092 3093 3095 3095 3096 3097 3099 3100 3102 3102 3103 3105 3109 3110 3111 3113 3115 3117 3118 3120 3122 3123 3125 3128 3131 3133 3135 3138 3139 3141 3144 3145 3145 3146 3144 3142 3141 3143 3145 3144 3141 3140 3143 3145 3145 3145 3145 3147 3148 3147 3150 3154 3156 3157 3158 3159
3090 3089 3089 3089 3089 3090 3089 3089 3090 3092 3093 3093 3094 3094 3095 3092 3087 3087 3089 3089 3088 3088 3089 3088 3087 3087 3088 3088 3089 3090 3090 3090 3091 3092 3093 3094 3094 3094 3096 3098 3100 3101 3103 3105 3106 3106 3108 3107 3107 3110 3112 3115 3118 3119 3122 3126 3128 3130 3132 3135 3135 3136 3139 3141 3141 3141 3140 3138 3139 3141 3141 3140 3138 3138 3139 3142 3142 3142 3143 3145 3147 3147 3149 3153 3155 3156 3156 3157
3087 3086 3086 3087 3086 3085 3085 3086 3087 3089 3089 3090 3090 3090 3088 3085 3085 3087 3087 3086 3086 3087 3087 3087 3086 3086 3086 3087 3087 3088 3089 3089 3090 3091 3091 3091 3091 3091 3093 3095 3097 3099 3101 3102 3102 3104 3104 3102 3103 3109 3111 3113 3116 3118 3122 3125 3125 3127 3130 3131 3129 3131 3135 3136 3136 3135 3135 3135 3136 3137 3136 3134 3134 3135 3137 3139 3140 3140 3141 3142 3144 3144 3146 3151 3152 3153 3154 3155
3083 3083 3083 3083 3082 3081 3081 3082 3084 3085 3086 3086 3086 3083 3080 3081 3084 3085 3085 3085 3085 3086 3085 3085 3085 3085 3085 3085 3086 3087 3087 3087 3089 3089 3089 3089 3089 3089 3091 3092 3094 3096 3097 3099 3100 3101 3102 3101 3104 3109 3110 3111 3114 3117 3120 3121 3121 3123 3125 3124 3125 3130 3133 3133 3133 3133 3133 3134 3133 3132 3132 3131 3132 3133 3135 3136 3136 3137 3137 3138 3140 3141 3143 3147 3148 3150 3152 3153
3080 3080 3080 3078 3077 3078 3078 3079 3081 3081 3082 3082 3079 3077 3077 3080 3082 3083 3083 3084 3084 3084 3084 3084 3084 3084 3084 3083 3083 3085 3085 3085 3087 3088 3087 3088 3087 3087 3089 3090 3092 3093 3095 3097 3099 3100 3100 3100 3102 3105 3106 3109 3113 3116 3117 3118 3119 3120 3119 3121 3125 3129 3130 3129 3130 3131 3133 3132 3130 3129 3129 3130 3130 3130 3131 3132 3133 3133 3134 3135 3136 3138 3140 3143 3145 3148 3150 3151
3076 3076 3076 3075 3074 3074 3075 3076 3077 3077 3078 3077 3074 3074 3076 3077 3079 3080 3081 3082 3082 3083 3083 3083 3084 3083 3083 3083 3082 3082 3084 3084 3086 3086 3086 3085 3083 3084 3086 3088 3089 3091 3093 3096 3097 3098 3099 3099 3100 3102 3103 3107 3111 3113 3113 3113 3115 3116 3117 3120 3123 3123 3123 3124 3126 3128 3130 3130 3128 3126 3126 3127 3127 3128 3128 3129 3130 3131 3131 3132 3134 3135 3137 3139 3143 3146 3148 3149
3072 3072 3072 3071 3071 3071 3071 3073 3073 3073 3073 3071 3070 3072 3073 3074 3077 3078 3078 3080 3081 3081 3082 3082 3083 3082 3082 3081 3080 3081 3082 3083 3084 3085 3084 3083 3081 3080 3083 3085 3086 3088 3091 3093 3094 3096 3098 3098 3097 3099 3101 3105 3107 3107 3105 3105 3109 3112 3114 3117 3118 3118 3118 3120 3121 3122 3124 3126 3126 3125 3123 3123 3124 3125 3126 3126 3127 3129 3129 3130 3131 3133 3134 3137 3141 3144 3145 3147
3068 3068 3068 3068 3067 3067 3068 3068 3068 3068 3067 3066 3067 3069 3071 3073 3074 3075 3076 3078 3079 3079 3080 3080 3081 3080 3079 3079 3079 3079 3080 3080 3082 3083 3082 3081 3080 3078 3080 3082 3084 3085 3088 3090 3091 3094 3096 3096 3095 3096 3099 3100 3099 3098 3098 3101 3105 3108 3109 3111 3112 3114 3115 3116 3118 3117 3117 3121 3123 3123 3122 3120 3121 3123 3123 3124 3126 3127 3128 3128 3129 3131 3133 3137 3140 3142 3143 3144
3065 3065 3064 3064 3064 3064 3064 3064 3063 3063 3063 3063 3065 3068 3069 3070 3071 3072 3074 3076 3076 3077 3077 3078 3079 3078 3077 3077 3077 3078 3078 3077 3078 3080 3079 3079 3078 3076 3077 3079 3080 3082 3085 3086 3087 3089 3091 3092 3093 3093 3093 3093 3093 3096 3099 3101 3103 3105 3106 3106 3108 3110 3112 3113 3113 3113 3114 3116 3117 3119 3118 3117 3119 3120 3121 3122 3125 3125 3126 3127 3128 3130 3133 3136 3138 3139 3141 3142
3062 3062 3061 3061 3060 3061 3061 3060 3060 3060 3059 3061 3064 3066 3067 3068 3068 3069 3071 3072 3073 3073 3074 3075 3075 3075 3075 3075 3075 3076 3077 3075 3075 3077 3076 3075 3075 3074 3074 3076 3077 3079 3080 3080 3082 3085 3088 3090 3091 3090 3089 3090 3092 3096 3099 3100 3102 3103 3103 3104 3106 3107 3107 3108 3108 3110 3112 3113 3113 3115 3115 3114 3117 3119 3119 3122 3124 3124 3125 3126 3127 3129 3132 3134 3135 3137 3139 3141
3059 3059 3059 3057 3056 3057 3057 3057 3058 3057 3057 3060 3061 3063 3064 3064 3065 3065 3067 3069 3069 3070 3071 3071 3072 3072 3072 3073 3074 3074 3075 3073 3072 3073 3073 3071 3070 3069 3069 3072 3074 3075 3076 3076 3078 3083 3085 3086 3087 3088 3087 3087 3089 3092 3094 3096 3098 3098 3098 3099 3101 3102 3103 3105 3106 3108 3109 3110 3111 3113 3113 3112 3115 3117 3118 3120 3122 3123 3124 3125 3126 3129 3130 3132 3133 3135 3137 3139
3055 3056 3056 3053 3053 3054 3054 3055 3056 3056 3056 3058 3058 3059 3060 3061 3061 3062 3063 3065 3066 3066 3067 3067 3069 3070 3069 3070 3071 3072 3073 3072 3068 3068 3070 3068 3065 3065 3065 3066 3068 3070 3071 3072 3074 3078 3080 3080 3082 3085 3086 3086 3086 3086 3087 3089 3091 3091 3092 3094 3097 3099 3102 3103 3105 3106 3106 3106 3107 3109 3109 3109 3112 3115 3116 3118 3119 3121 3123 3124 3125 3127 3128 3129 3131 3133 3135 3136
3052 3052 3052 3051 3050 3051 3052 3053 3053 3053 3054 3054 3053 3054 3056 3057 3058 3060 3060 3061 3062 3063 3063 3063 3065 3067 3066 3067 3067 3068 3070 3071 3067 3065 3066 3065 3062 3062 3062 3061 3063 3065 3066 3068 3071 3073 3075 3075 3077 3079 3080 3080 3079 3078 3080 3083 3086 3087 3089 3090 3093 3096 3098 3099 3101 3102 3102 3103 3105 3105 3105 3107 3110 3112 3113 3115 3117 3119 3121 3122 3123 3124 3126 3127 3129 3130 3132 3134
3049 3049 3049 3049 3049 3049 3050 3050 3049 3049 3050 3050 3049 3051 3053 3054 3055 3057 3058 3058 3059 3060 3060 3060 3062 3063 3063 3063 3064 3065 3065 3067 3066 3064 3064 3063 3061 3061 3060 3058 3058 3060 3063 3066 3068 3070 3071 3071 3072 3073 3074 3074 3075 3076 3080 3083 3084 3085 3086 3087 3089 3092 3094 3096 3097 3097 3098 3101 3102 3101 3103 3106 3108 3109 3111 3112 3114 3116 3118 3119 3120 3122 3123 3125 3127 3129 3130 3132
3047 3045 3045 3047 3047 3046 3047 3047 3047 3047 3047 3047 3047 3048 3050 3052 3053 3054 3055 3056 3056 3057 3057 3057 3058 3059 3059 3059 3062 3063 3062 3063 3063 3063 3063 3063 3061 3060 3059 3056 3055 3056 3060 3063 3064 3066 3068 3067 3068 3070 3071 3072 3074 3076 3080 3082 3082 3083 3084 3085 3086 3089 3091 3091 3091 3093 3096 3098 3098 3098 3101 3103 3105 3107 3109 3110 3112 3113 3115 3116 3118 3119 3120 3121 3124 3127 3128 3129
3044 3043 3043 3044 3044 3043 3044 3045 3044 3044 3045 3045 3044 3045 3047 3049 3050 3050 3051 3052 3053 3054 3054 3054 3055 3055 3055 3056 3058 3059 3059 3060 3061 3062 3062 3062 3060 3059 3057 3056 3054 3054 3057 3061 3061 3063 3064 3064 3065 3068 3068 3070 3072 3074 3076 3079 3080 3080 3081 3082 3084 3085 3086 3087 3088 3090 3092 3093 3093 3096 3099 3099 3102 3105 3106 3108 3110 3111 3112 3113 3114 3116 3118 3120 3122 3124 3125 3126
3040 3040 3040 3041 3040 3040 3041 3042 3041 3041 3042 3043 3042 3044 3045 3046 3047 3048 3049 3049 3050 3052 3052 3051 3051 3051 3051 3052 3054 3054 3056 3058 3060 3061 3060 3060 3059 3058 3057 3056 3054 3054 3055 3056 3058 3060 3062 3062 3063 3065 3066 3067 3069 3071 3074 3076 3077 3078 3079 3080 3081 3081 3082 3084 3085 3086 3088 3089 3091 3095 3096 3096 3099 3102 3103 3105 3107 3108 3109 3110 3111 3114 3117 3118 3119 3121 3122 3123
3037 3037 3037 3037 3037 3038 3039 3039 3038 3037 3039 3040 3040 3041 3042 3043 3044 3046 3047 3047 3047 3048 3049 3048 3048 3049 3049 3049 3050 3050 3052 3056 3058 3059 3058 3058 3058 3058 3057 3056 3055 3054 3053 3053 3055 3057 3059 3059 3061 3063 3064 3064 3066 3069 3071 3073 3074 3074 3075 3077 3078 3078 3079 3080 3081 3083 3085 3087 3090 3092 3092 3093 3096 3099 3100 3102 3104 3105 3106 3107 3109 3112 3114 3115 3116 3117 3119 3120
3034 3034 3034 3034 3034 3035 3036 3035 3035 3034 3035 3037 3037 3037 3038 3040 3043 3043 3044 3046 3046 3044 3044 3045 3047 3048 3047 3047 3048 3047 3048 3052 3055 3057 3058 3056 3056 3056 3056 3056 3055 3054 3052 3052 3054 3055 3055 3056 3058 3061 3061 3061 3062 3066 3068 3070 3072 3071 3071 3072 3074 3074 3075 3076 3078 3080 3082 3084 3086 3087 3087 3090 3094 3096 3097 3099 3100 3101 3103 3105 3107 3109 3110 3112 3113 3114 3116 3118
3031 3031 3031 3030 3030 3032 3032 3032 3032 3032 3032 3034 3034 3034 3035 3038 3040 3040 3041 3043 3043 3041 3042 3043 3045 3046 3045 3045 3045 3045 3045 3048 3051 3055 3056 3055 3054 3054 3054 3054 3054 3053 3052 3051 3052 3053 3053 3053 3054 3056 3057 3057 3059 3063 3065 3068 3069 3067 3067 3069 3070 3070 3071 3074 3075 3076 3078 3080 3082 3083 3085 3088 3091 3092 3093 3094 3096 3098 3100 3102 3104 3105 3106 3108 3110 3113 3115 3117